sat.trackr.live / text

‹ back to catalog

ONEWEB-0065

NORAD 45164 · 2020-008AK

PAYLOAD ACTIVE UNKNOWN

§ Identity

Operator
Country
UK
Launch date
2020-02-06
Launch site
TYMSC
Launch vehicle
Mass (kg)
RCS (m²)

Purposes: comms

External: N2YO · Heavens-Above · Gunter

§ Orbital elements

Epoch: 2026-09-19T15:24:45.192672Z

Period
109.89 min
Inclination
87.8906°
Eccentricity
0.0001853
Mean motion
13.10369528 rev/d
Perigee alt
1,220.3 km
Apogee alt
1,223.1 km
Semi-major
7,599.9 km
B*
-5.0399e-4
RAAN
17.4740°
Arg perigee
110.4908°
Mean anomaly
249.6419°
Rev number
32,025

§ Raw data

ONEWEB-00651 45164U 20008AK  26262.64218973 -.00000163  00000+0 -50399-3 0  99982 45164  87.8906  17.4740 0001853 110.4908 249.6419 13.10369528320258

JSON: /api/v1/satellites/45164 · /tle

For live sub-satellite position, see the globe view (requires WebGL).

§ Visibility from observer

Set your observer location to see the next 7 days of passes ≥ 10°. The values pass through the URL so the page stays shareable.

No JS? Fill the form by hand. The geolocation button needs JavaScript.